This is the latest recevied weather packets stored in our database for station/object NK2J. If no packets are shown the sender has not sent any weather packets the latest 1 day(s).
| Time | Temp. | Humidity | Pressure | Rain* | Wind** | Luminosity | Snow |
|---|---|---|---|---|---|---|---|
| 1778031539 | 23.33° C | 27% | 1011.9 hPa | 0 mm | - | 21 W/m² | - |
| 1778031237 | 23.33° C | 27% | 1012.1 hPa | 0 mm | - | 26 W/m² | - |
| 1778030629 | 23.33° C | 27% | 1011.9 hPa | 0 mm | - | 31 W/m² | - |
| 1778029419 | 23.89° C | 26% | 1011.8 hPa | 0 mm | - | 56 W/m² | - |
| 1778029115 | 23.33° C | 26% | 1011.7 hPa | 0 mm | - | 53 W/m² | - |
| 1778028812 | 23.33° C | 26% | 1011.6 hPa | 0 mm | - | 55 W/m² | - |
| 1778028508 | 23.89° C | 27% | 1011.6 hPa | 0 mm | - | 54 W/m² | - |
| 1778028206 | 23.89° C | 27% | 1011.6 hPa | 0 mm | - | 74 W/m² | - |
| 1778027902 | 23.89° C | 26% | 1011.7 hPa | 0 mm | - | 164 W/m² | - |
| 1778027598 | 24.44° C | 25% | 1011.6 hPa | 0 mm | - | 198 W/m² | - |
| 1778027295 | 24.44° C | 27% | 1011.5 hPa | 0 mm | - | 210 W/m² | - |
| 1778026687 | 23.89° C | 27% | 1011.5 hPa | 0 mm | - | 242 W/m² | - |
| 1778024870 | 24.44° C | 26% | 1011.3 hPa | 0 mm | - | 303 W/m² | - |
| 1778024264 | 24.44° C | 27% | 1011.4 hPa | 0 mm | - | 71 W/m² | - |
| 1778023659 | 24.44° C | 26% | 1011.2 hPa | 0 mm | - | 358 W/m² | - |
| 1778022752 | 24.44° C | 28% | 1011.2 hPa | 0 mm | - | 284 W/m² | - |
| 1778021540 | 24.44° C | 27% | 1011.4 hPa | 0 mm | - | 467 W/m² | - |
| 1778021235 | 25° C | 27% | 1011.4 hPa | 0 mm | - | 477 W/m² | - |
| 1778016995 | 25° C | 31% | 1011.8 hPa | 0 mm | - | 727 W/m² | - |
| 1778015782 | 23.89° C | 33% | 1012.3 hPa | 0 mm | - | 743 W/m² | - |
| 1778014570 | 23.33° C | 34% | 1012.4 hPa | 0 mm | - | 216 W/m² | - |
| 1778014268 | 23.33° C | 36% | 1012.5 hPa | 0 mm | - | 207 W/m² | - |
| 1778013056 | 22.78° C | 38% | 1012.7 hPa | 0 mm | - | 223 W/m² | - |
| 1778011540 | 23.33° C | 40% | 1012.9 hPa | 0 mm | - | 879 W/m² | - |
| 1778010933 | 23.89° C | 39% | 1012.6 hPa | 0 mm | - | 833 W/m² | - |
* Rain latest hour (hover to see other rain measurements)
** Current wind speed in m/s (hover to see current wind gust speed)